Time,TemperatureF,DewpointF,PressureIn,WindDirection,WindDirectionDegrees,WindSpeedMPH,WindSpeedGustMPH,Humidity,HourlyPrecipIn,Conditions,Clouds,dailyrainin,SolarRadiationWatts/m^2,SoftwareType,DateUTC
2013-03-03 00:22:00,-5.0,-10.0,-100.00,NNE,24,0.0,0.0,77,0.00,,,0.00,0.000000,,2013-03-03 06:22:00,
2013-03-03 00:32:00,-5.0,-10.0,-100.00,NNE,24,0.0,0.0,77,0.00,,,0.00,0.000000,,2013-03-03 06:32:00,
2013-03-03 00:42:00,-5.0,-10.0,-100.00,NNE,24,0.0,0.0,77,0.00,,,0.00,0.000000,,2013-03-03 06:42:00,
2013-03-03 00:52:00,-5.0,-10.0,-100.00,NNE,24,0.0,0.0,77,0.00,,,0.00,0.000000,,2013-03-03 06:52:00,
2013-03-03 01:01:00,-5.0,-10.0,-100.00,NNE,24,0.0,0.0,77,0.00,,,0.00,0.000000,,2013-03-03 07:01:00,
2013-03-03 01:32:00,-8.0,-14.0,-100.00,NE,55,0.0,0.0,74,0.00,,,0.00,0.000000,,2013-03-03 07:32:00,
2013-03-03 01:42:00,-8.0,-14.0,-100.00,NE,55,0.0,0.0,74,0.00,,,0.00,0.000000,,2013-03-03 07:42:00,
2013-03-03 01:52:00,-8.0,-14.0,-100.00,NE,55,0.0,0.0,74,0.00,,,0.00,0.000000,,2013-03-03 07:52:00,
2013-03-03 02:01:00,-8.0,-14.0,-100.00,NE,55,0.0,0.0,74,0.00,,,0.00,0.000000,,2013-03-03 08:01:00,
2013-03-03 02:32:00,-9.0,-16.0,-100.00,NNE,27,0.0,0.0,72,0.00,,,0.00,0.000000,,2013-03-03 08:32:00,
2013-03-03 02:42:00,-9.0,-16.0,-100.00,NNE,27,0.0,0.0,72,0.00,,,0.00,0.000000,,2013-03-03 08:42:00,
2013-03-03 02:54:00,-9.0,-16.0,-100.00,NNE,27,0.0,0.0,72,0.00,,,0.00,0.000000,,2013-03-03 08:54:00,
2013-03-03 03:01:00,-9.0,-16.0,-100.00,NNE,27,0.0,0.0,72,0.00,,,0.00,0.000000,,2013-03-03 09:01:00,
2013-03-03 03:32:00,-11.0,-17.0,-100.00,NE,54,0.0,0.0,72,0.00,,,0.00,0.000000,,2013-03-03 09:32:00,
2013-03-03 03:42:00,-11.0,-17.0,-100.00,NE,54,0.0,0.0,72,0.00,,,0.00,0.000000,,2013-03-03 09:42:00,
2013-03-03 03:52:00,-11.0,-17.0,-100.00,NE,54,0.0,0.0,72,0.00,,,0.00,0.000000,,2013-03-03 09:52:00,
2013-03-03 04:01:00,-11.0,-17.0,-100.00,NE,54,0.0,0.0,72,0.00,,,0.00,0.000000,,2013-03-03 10:01:00,
2013-03-03 04:32:00,-12.0,-19.0,-100.00,ENE,74,0.0,0.0,71,0.00,,,0.00,0.000000,,2013-03-03 10:32:00,
2013-03-03 04:42:00,-12.0,-19.0,-100.00,ENE,74,0.0,0.0,71,0.00,,,0.00,0.000000,,2013-03-03 10:42:00,
2013-03-03 04:52:00,-12.0,-19.0,-100.00,ENE,74,0.0,0.0,71,0.00,,,0.00,0.000000,,2013-03-03 10:52:00,
2013-03-03 05:01:00,-12.0,-19.0,-100.00,ENE,74,0.0,0.0,71,0.00,,,0.00,0.000000,,2013-03-03 11:01:00,
2013-03-03 05:32:00,-13.0,-20.0,-100.00,NE,36,0.0,2.0,70,0.00,,,0.00,0.000000,,2013-03-03 11:32:00,
2013-03-03 05:42:00,-13.0,-20.0,-100.00,NE,36,0.0,2.0,70,0.00,,,0.00,0.000000,,2013-03-03 11:42:00,
2013-03-03 05:52:00,-13.0,-20.0,-100.00,NE,36,0.0,2.0,70,0.00,,,0.00,0.000000,,2013-03-03 11:52:00,
2013-03-03 06:01:00,-13.0,-20.0,-100.00,NE,36,0.0,2.0,70,0.00,,,0.00,0.000000,,2013-03-03 12:01:00,
2013-03-03 06:32:00,-12.0,-19.0,-100.00,NE,41,0.0,0.0,71,0.00,,,0.00,0.000000,,2013-03-03 12:32:00,
2013-03-03 06:43:00,-12.0,-19.0,-100.00,NE,41,0.0,0.0,71,0.00,,,0.00,0.000000,,2013-03-03 12:43:00,
2013-03-03 06:53:00,-12.0,-19.0,-100.00,NE,41,0.0,0.0,71,0.00,,,0.00,0.000000,,2013-03-03 12:53:00,
2013-03-03 07:01:00,-12.0,-19.0,-100.00,NE,41,0.0,0.0,71,0.00,,,0.00,0.000000,,2013-03-03 13:01:00,
2013-03-03 07:02:00,-13.0,-20.0,-100.00,NE,55,0.0,0.0,69,0.00,,,0.00,5.000000,,2013-03-03 13:02:00,
2013-03-03 07:32:00,-13.0,-20.0,-100.00,NE,55,0.0,0.0,69,0.00,,,0.00,5.000000,,2013-03-03 13:32:00,
2013-03-03 07:42:00,-13.0,-20.0,-100.00,NE,55,0.0,0.0,69,0.00,,,0.00,5.000000,,2013-03-03 13:42:00,
2013-03-03 07:52:00,-13.0,-20.0,-100.00,NE,55,0.0,0.0,69,0.00,,,0.00,5.000000,,2013-03-03 13:52:00,
2013-03-03 08:32:00,2.0,-6.0,-100.00,ESE,102,1.0,3.0,68,0.00,,,0.00,107.000000,,2013-03-03 14:32:00,
2013-03-03 08:42:00,2.0,-6.0,-100.00,ESE,102,1.0,3.0,68,0.00,,,0.00,107.000000,,2013-03-03 14:42:00,
2013-03-03 08:52:00,2.0,-6.0,-100.00,ESE,102,1.0,3.0,68,0.00,,,0.00,107.000000,,2013-03-03 14:52:00,
2013-03-03 09:01:00,2.0,-6.0,-100.00,ESE,102,1.0,3.0,68,0.00,,,0.00,107.000000,,2013-03-03 15:01:00,
2013-03-03 09:32:00,17.0,3.0,-100.00,ESE,112,4.0,6.0,54,0.00,,,0.00,334.000000,,2013-03-03 15:32:00,
2013-03-03 09:42:00,17.0,3.0,-100.00,ESE,112,4.0,6.0,54,0.00,,,0.00,334.000000,,2013-03-03 15:42:00,
2013-03-03 09:52:00,17.0,3.0,-100.00,ESE,112,4.0,6.0,54,0.00,,,0.00,334.000000,,2013-03-03 15:52:00,
2013-03-03 10:01:00,17.0,3.0,-100.00,ESE,112,4.0,6.0,54,0.00,,,0.00,334.000000,,2013-03-03 16:01:00,
2013-03-03 10:32:00,24.0,4.0,-100.00,ESE,110,4.0,8.0,41,0.00,,,0.00,517.000000,,2013-03-03 16:32:00,
2013-03-03 10:42:00,24.0,4.0,-100.00,ESE,110,4.0,8.0,41,0.00,,,0.00,517.000000,,2013-03-03 16:42:00,
2013-03-03 10:52:00,24.0,4.0,-100.00,ESE,110,4.0,8.0,41,0.00,,,0.00,517.000000,,2013-03-03 16:52:00,
2013-03-03 11:01:00,24.0,4.0,-100.00,ESE,110,4.0,8.0,41,0.00,,,0.00,517.000000,,2013-03-03 17:01:00,
2013-03-03 11:32:00,30.0,2.0,-100.00,East,95,4.0,10.0,29,0.00,,,0.00,656.000000,,2013-03-03 17:32:00,
2013-03-03 11:42:00,30.0,2.0,-100.00,East,95,4.0,10.0,29,0.00,,,0.00,656.000000,,2013-03-03 17:42:00,
2013-03-03 11:52:00,30.0,2.0,-100.00,East,95,4.0,10.0,29,0.00,,,0.00,656.000000,,2013-03-03 17:52:00,
2013-03-03 12:01:00,30.0,2.0,-100.00,East,95,4.0,10.0,29,0.00,,,0.00,656.000000,,2013-03-03 18:01:00,
2013-03-03 12:22:00,32.0,-2.0,-100.00,SE,136,4.0,9.0,22,0.00,,,0.00,742.000000,,2013-03-03 18:22:00,
2013-03-03 12:32:00,32.0,-2.0,-100.00,SE,136,4.0,9.0,22,0.00,,,0.00,742.000000,,2013-03-03 18:32:00,
2013-03-03 12:42:00,32.0,-2.0,-100.00,SE,136,4.0,9.0,22,0.00,,,0.00,742.000000,,2013-03-03 18:42:00,
2013-03-03 12:52:00,32.0,-2.0,-100.00,SE,136,4.0,9.0,22,0.00,,,0.00,742.000000,,2013-03-03 18:52:00,
2013-03-03 13:01:00,32.0,-2.0,-100.00,SE,136,4.0,9.0,22,0.00,,,0.00,742.000000,,2013-03-03 19:01:00,
2013-03-03 13:22:00,37.0,-3.0,-100.00,West,280,2.0,10.0,18,0.00,,,0.00,760.000000,,2013-03-03 19:22:00,
2013-03-03 13:32:00,37.0,-3.0,-100.00,West,280,2.0,10.0,18,0.00,,,0.00,760.000000,,2013-03-03 19:32:00,
2013-03-03 13:42:00,37.0,-3.0,-100.00,West,280,2.0,10.0,18,0.00,,,0.00,760.000000,,2013-03-03 19:42:00,
2013-03-03 13:52:00,37.0,-3.0,-100.00,West,280,2.0,10.0,18,0.00,,,0.00,760.000000,,2013-03-03 19:52:00,
2013-03-03 14:01:00,37.0,-3.0,-100.00,West,280,2.0,10.0,18,0.00,,,0.00,760.000000,,2013-03-03 20:01:00,
2013-03-03 14:02:00,37.0,-1.0,-100.00,WNW,295,4.0,8.0,19,0.00,,,0.00,714.000000,,2013-03-03 20:02:00,
2013-03-03 14:32:00,37.0,-1.0,-100.00,WNW,295,4.0,8.0,19,0.00,,,0.00,714.000000,,2013-03-03 20:32:00,
2013-03-03 14:42:00,37.0,-1.0,-100.00,WNW,295,4.0,8.0,19,0.00,,,0.00,714.000000,,2013-03-03 20:42:00,
2013-03-03 14:53:00,37.0,-1.0,-100.00,WNW,295,4.0,8.0,19,0.00,,,0.00,714.000000,,2013-03-03 20:53:00,
2013-03-03 15:32:00,38.0,-1.0,-100.00,WNW,289,2.0,7.0,19,0.00,,,0.00,598.000000,,2013-03-03 21:32:00,
2013-03-03 15:42:00,38.0,-1.0,-100.00,WNW,289,2.0,7.0,19,0.00,,,0.00,598.000000,,2013-03-03 21:42:00,
2013-03-03 15:52:00,38.0,-1.0,-100.00,WNW,289,2.0,7.0,19,0.00,,,0.00,598.000000,,2013-03-03 21:52:00,
2013-03-03 16:01:00,38.0,-1.0,-100.00,WNW,289,2.0,7.0,19,0.00,,,0.00,598.000000,,2013-03-03 22:01:00,
2013-03-03 16:32:00,35.0,2.0,-100.00,NE,49,4.0,9.0,24,0.00,,,0.00,436.000000,,2013-03-03 22:32:00,
2013-03-03 16:42:00,35.0,2.0,-100.00,NE,49,4.0,9.0,24,0.00,,,0.00,436.000000,,2013-03-03 22:42:00,
2013-03-03 16:52:00,35.0,2.0,-100.00,NE,49,4.0,9.0,24,0.00,,,0.00,436.000000,,2013-03-03 22:52:00,
2013-03-03 17:01:00,35.0,2.0,-100.00,NE,49,4.0,9.0,24,0.00,,,0.00,436.000000,,2013-03-03 23:01:00,
2013-03-03 17:32:00,28.0,5.0,-100.00,NE,44,3.0,10.0,37,0.00,,,0.00,221.000000,,2013-03-03 23:32:00,
2013-03-03 17:42:00,28.0,5.0,-100.00,NE,44,3.0,10.0,37,0.00,,,0.00,221.000000,,2013-03-03 23:42:00,
2013-03-03 17:52:00,28.0,5.0,-100.00,NE,44,3.0,10.0,37,0.00,,,0.00,221.000000,,2013-03-03 23:52:00,
2013-03-03 18:01:00,28.0,5.0,-100.00,NE,44,3.0,10.0,37,0.00,,,0.00,221.000000,,2013-03-04 00:01:00,
2013-03-03 18:32:00,23.0,8.0,-100.00,NNE,32,3.0,9.0,52,0.00,,,0.00,16.000000,,2013-03-04 00:32:00,
2013-03-03 18:42:00,23.0,8.0,-100.00,NNE,32,3.0,9.0,52,0.00,,,0.00,16.000000,,2013-03-04 00:42:00,
2013-03-03 18:52:00,23.0,8.0,-100.00,NNE,32,3.0,9.0,52,0.00,,,0.00,16.000000,,2013-03-04 00:52:00,
2013-03-03 19:01:00,23.0,8.0,-100.00,NNE,32,3.0,9.0,52,0.00,,,0.00,16.000000,,2013-03-04 01:01:00,
2013-03-03 19:32:00,20.0,9.0,-100.00,ENE,77,2.0,9.0,63,0.00,,,0.00,0.000000,,2013-03-04 01:32:00,
2013-03-03 19:42:00,20.0,9.0,-100.00,ENE,77,2.0,9.0,63,0.00,,,0.00,0.000000,,2013-03-04 01:42:00,
2013-03-03 19:52:00,20.0,9.0,-100.00,ENE,77,2.0,9.0,63,0.00,,,0.00,0.000000,,2013-03-04 01:52:00,
2013-03-03 20:01:00,20.0,9.0,-100.00,ENE,77,2.0,9.0,63,0.00,,,0.00,0.000000,,2013-03-04 02:01:00,
2013-03-03 20:32:00,17.0,9.0,-100.00,East,95,1.0,7.0,71,0.00,,,0.00,0.000000,,2013-03-04 02:32:00,
2013-03-03 20:42:00,17.0,9.0,-100.00,East,95,1.0,7.0,71,0.00,,,0.00,0.000000,,2013-03-04 02:42:00,
2013-03-03 20:52:00,17.0,9.0,-100.00,East,95,1.0,7.0,71,0.00,,,0.00,0.000000,,2013-03-04 02:52:00,
2013-03-03 21:01:00,17.0,9.0,-100.00,East,95,1.0,7.0,71,0.00,,,0.00,0.000000,,2013-03-04 03:01:00,
2013-03-03 21:22:00,11.0,7.0,-100.00,ESE,119,0.0,3.0,83,0.00,,,0.00,0.000000,,2013-03-04 03:22:00,
2013-03-03 21:32:00,11.0,7.0,-100.00,ESE,119,0.0,3.0,83,0.00,,,0.00,0.000000,,2013-03-04 03:32:00,
2013-03-03 21:42:00,11.0,7.0,-100.00,ESE,119,0.0,3.0,83,0.00,,,0.00,0.000000,,2013-03-04 03:42:00,
2013-03-03 21:52:00,11.0,7.0,-100.00,ESE,119,0.0,3.0,83,0.00,,,0.00,0.000000,,2013-03-04 03:52:00,
2013-03-03 22:01:00,11.0,7.0,-100.00,ESE,119,0.0,3.0,83,0.00,,,0.00,0.000000,,2013-03-04 04:01:00,
2013-03-03 22:32:00,9.0,6.0,-100.00,ESE,115,1.0,2.0,86,0.00,,,0.00,0.000000,,2013-03-04 04:32:00,
2013-03-03 22:42:00,9.0,6.0,-100.00,ESE,115,1.0,2.0,86,0.00,,,0.00,0.000000,,2013-03-04 04:42:00,
2013-03-03 22:52:00,9.0,6.0,-100.00,ESE,115,1.0,2.0,86,0.00,,,0.00,0.000000,,2013-03-04 04:52:00,
2013-03-03 23:01:00,9.0,6.0,-100.00,ESE,115,1.0,2.0,86,0.00,,,0.00,0.000000,,2013-03-04 05:01:00,
2013-03-03 23:22:00,8.0,4.0,-100.00,East,96,1.0,4.0,84,0.00,,,0.00,0.000000,,2013-03-04 05:22:00,
2013-03-03 23:32:00,8.0,4.0,-100.00,East,96,1.0,4.0,84,0.00,,,0.00,0.000000,,2013-03-04 05:32:00,
2013-03-03 23:43:00,8.0,4.0,-100.00,East,96,1.0,4.0,84,0.00,,,0.00,0.000000,,2013-03-04 05:43:00,
2013-03-03 23:52:00,8.0,4.0,-100.00,East,96,1.0,4.0,84,0.00,,,0.00,0.000000,,2013-03-04 05:52:00,